Hourly Data Report for October 06, 2014

All times are specified in Local Standard Time (LST). Add 1 hour to adjust for Daylight Saving Time where and when it is observed.

CLYDE RIVER A
NUNAVUT

70°29'09.000" N
68°31'01.000" W
26.50 m
2400804
71090
YCY

Download Data

Hourly Data (October 2014)
Hourly Data Report for October 6, 2014
Temp Definition
°C
Dew Point Temp Definition
°C
Rel Hum Definition
%
Wind Dir Definition
10's deg

Wind Spd Definition
km/h
Visibility Definition
km
Stn Press Definition
kPa
Hmdx Definition


Wind Chill Definition


Weather Definition


TIME
00:00 Legend Double Dagger -2.6 -6.4 75 24 9 16.1 102.68   -6 LegendNANA
01:00 Legend Double Dagger -2.8 -6.3 77 28 13 16.1 102.69   -7 LegendNANA
02:00 Legend Double Dagger -2.9 -5.7 81 29 15 16.1 102.71   -8 LegendNANA
03:00 Legend Double Dagger -3.0 -5.6 83 30 13 16.1 102.72   -8 LegendNANA
04:00 Legend Double Dagger -3.2 -5.9 82 30 17 16.1 102.72   -9 LegendNANA
05:00 Legend Double Dagger -3.3 -5.8 83 31 13 16.1 102.75   -8 Snow
06:00 Legend Double Dagger -2.9 -5.6 82 3 9 16.1 102.77   -6 LegendNANA
07:00 Legend Double Dagger -3.1 -5.4 84 35 8 9.7 102.76   -6 Fog
08:00 Legend Double Dagger -3.0 -5.5 83 28 5 16.1 102.75   -5 Snow
09:00 Legend Double Dagger -2.4 -5.9 77 28 5 16.1 102.71   -4 LegendNANA
10:00 Legend Double Dagger -2.5 -5.5 80 27 4 16.1 102.71   -4 LegendNANA
11:00 Legend Double Dagger -2.4 -5.4 80 30 11 16.1 102.72   -6 Snow
12:00 Legend Double Dagger -2.5 -4.8 84 30 11 16.1 102.72   -7 Snow
13:00 Legend Double Dagger -2.1 -4.7 82 32 17 16.1 102.72   -7 Snow
14:00 Legend Double Dagger -1.9 -5.0 80 33 13 16.1 102.76   -6 LegendNANA
15:00 Legend Double Dagger -2.0 -4.5 83 32 13 16.1 102.77   -6 Snow
16:00 Legend Double Dagger -1.7 -4.5 81 32 8 16.1 102.80   -5 LegendNANA
17:00 Legend Double Dagger -2.1 -4.3 85 32 8 16.1 102.82   -5 LegendNANA
18:00 Legend Double Dagger -2.3 -4.3 86 30 13 16.1 102.85   -7 Snow
19:00 Legend Double Dagger -2.4 -4.7 84 32 11 16.1 102.85   -6 LegendNANA
20:00 Legend Double Dagger -1.1 -5.9 70 LegendMM 4 16.1 102.86   -2 LegendNANA
21:00 Legend Double Dagger -2.3 -5.0 82 31 9 16.1 102.85   -6 LegendNANA
22:00 Legend Double Dagger -2.1 -5.2 79 30 5 16.1 102.82   -4 LegendNANA
23:00 Legend Double Dagger -2.2 -5.6 78 34 5 16.1 102.80   -4 LegendNANA

Notes on Data Quality.

Legend

  • E = Estimated
  • M = Missing
  • NA = Not Available
  • ‡ = Partner data that is not subject to review by the National Climate Archives
Date modified: